Weather History for Flag Island, MN

Change the Weather History Date:

Sunday, December 9, 2012

  Actual Average Record
Temperature  
Mean Temperature 0 °F -  
Max Temperature 8 °F 21 °F 35 °F (2006)
Min Temperature -11 °F 9 °F -16 °F (2007)
Degree Days  
Heating Degree Days 66    
Moisture  
Dew Point -5 °F    
Average Humidity 81    
Maximum Humidity 92    
Minimum Humidity 71    
Precipitation  
Precipitation 0.00 in - - ()
Sea Level Pressure  
Sea Level Pressure 30.23 in    
Wind  
Wind Speed 10 mph (NNW)    
Max Wind Speed 15 mph    
Max Gust Speed -    
Visibility 10 miles    
Events      
Averages and records for this station are not official NWS values.
T = Trace of Precipitation, MM = Missing Value Source: NWS Daily Summary

Daily Weather History Graph

Daily Weather History Graph

Search for Another Location

Airport:

Trip Planner

Search our weather history database for the weather conditions in past years. The results will help you decide how hot, cold, wet, or windy it might be!

Date:

Astronomy

Dec. 09, 2012 Rise Set
Actual Time 8:03 AM CST 4:20 PM CST
Civil Twilight 7:26 AM CST 4:58 PM CST
Nautical Twilight 6:45 AM CST 5:38 PM CST
Astronomical Twilight 6:06 AM CST 6:17 PM CST
Moon 3:20 AM CST (12/9) 1:42 PM CST (12/9)
Length of Visible Light 9h 32m
Length of Day
8h 17m
Waning Crescent, 18% of the Moon is Illuminated
Dec 9
Waning Crescent
Dec 13
New
Dec 19
First Quarter
Dec 28
Full
Jan 4
Last Quarter

Hourly Weather History & Observations

Time (CST) Temp. Windchill Dew Point Humidity Pressure Visibility Wind Dir Wind Speed Gust Speed Precip Events Conditions
12:14 AM 8.6 °F -6.3 °F 5.0 °F 85% 30.17 in 10.0 mi North 11.5 mph - N/A   Overcast
12:33 AM 8.6 °F -7.0 °F 5.0 °F 85% 30.17 in 10.0 mi North 12.7 mph - N/A   Overcast
12:53 AM 8.6 °F -6.3 °F 3.2 °F 79% 30.18 in 10.0 mi NNE 11.5 mph - N/A   Overcast
1:14 AM 8.6 °F -3.7 °F 3.2 °F 79% 30.18 in 10.0 mi NNE 8.1 mph - N/A   Overcast
1:33 AM 6.8 °F -7.8 °F 3.2 °F 85% 30.19 in 10.0 mi NNE 10.4 mph - N/A   Overcast
1:53 AM 6.8 °F -7.8 °F 3.2 °F 85% 30.19 in 10.0 mi North 10.4 mph - N/A   Overcast
2:14 AM 6.8 °F -6.9 °F 1.4 °F 79% 30.19 in 10.0 mi North 9.2 mph - N/A   Overcast
2:54 AM 3.2 °F -11.3 °F -0.4 °F 85% 30.22 in 10.0 mi North 9.2 mph - N/A   Mostly Cloudy
3:13 AM 1.4 °F -14.5 °F -2.2 °F 85% 30.22 in 10.0 mi North 10.4 mph - N/A   Scattered Clouds
3:33 AM -0.4 °F -16.7 °F -2.2 °F 92% 30.22 in 10.0 mi North 10.4 mph - N/A   Clear
3:54 AM -0.4 °F -15.7 °F -4.0 °F 85% 30.22 in 10.0 mi North 9.2 mph - N/A   Clear
4:13 AM -0.4 °F -14.7 °F -4.0 °F 85% 30.22 in 10.0 mi North 8.1 mph - N/A   Clear
4:33 AM -2.2 °F -16.8 °F -5.8 °F 85% 30.23 in 10.0 mi North 8.1 mph - N/A   Clear
4:54 AM -2.2 °F -18.9 °F -5.8 °F 85% 30.24 in 10.0 mi North 10.4 mph - N/A   Clear
5:13 AM -2.2 °F -18.9 °F -5.8 °F 85% 30.25 in 10.0 mi North 10.4 mph - N/A   Clear
5:34 AM -2.2 °F -18.9 °F -7.6 °F 78% 30.25 in 10.0 mi North 10.4 mph - N/A   Clear
5:53 AM -2.2 °F -18.0 °F -7.6 °F 78% 30.25 in 10.0 mi North 9.2 mph - N/A   Clear
6:13 AM -5.8 °F -23.4 °F -9.4 °F 84% 30.26 in 10.0 mi North 10.4 mph - N/A   Clear
6:34 AM -2.2 °F -19.9 °F -7.6 °F 78% 30.27 in 10.0 mi North 11.5 mph - N/A   Clear
6:53 AM -2.2 °F -18.0 °F -7.6 °F 78% 30.27 in 10.0 mi North 9.2 mph - N/A   Clear
7:14 AM -2.2 °F -18.0 °F -7.6 °F 78% 30.28 in 10.0 mi North 9.2 mph - N/A   Clear
7:33 AM -4.0 °F -19.0 °F -7.6 °F 85% 30.29 in 10.0 mi North 8.1 mph - N/A   Clear
7:53 AM -4.0 °F -21.2 °F -7.6 °F 85% 30.29 in 10.0 mi North 10.4 mph - N/A   Clear
8:14 AM -4.0 °F -22.1 °F -9.4 °F 78% 30.29 in 10.0 mi NNW 11.5 mph - N/A   Clear
8:33 AM -5.8 °F -24.4 °F -11.2 °F 77% 30.29 in 10.0 mi NNW 11.5 mph - N/A   Clear
8:53 AM -5.8 °F -22.4 °F -11.2 °F 77% 30.30 in 10.0 mi NNW 9.2 mph - N/A   Clear
9:14 AM -5.8 °F -22.4 °F -9.4 °F 84% 30.30 in 10.0 mi North 9.2 mph - N/A   Clear
9:33 AM -4.0 °F -16.3 °F -9.4 °F 78% 30.30 in 10.0 mi North 5.8 mph - N/A   Clear
9:54 AM -2.2 °F -18.9 °F -9.4 °F 71% 30.31 in 10.0 mi North 10.4 mph - N/A   Clear
10:13 AM -2.2 °F -18.9 °F -9.4 °F 71% 30.31 in 10.0 mi North 10.4 mph - N/A   Clear
10:34 AM -0.4 °F -17.6 °F -7.6 °F 72% 30.32 in 10.0 mi North 11.5 mph - N/A   Clear
10:53 AM -0.4 °F -17.6 °F -7.6 °F 72% 30.30 in 10.0 mi North 11.5 mph - N/A   Clear
11:13 AM -0.4 °F -16.7 °F -7.6 °F 72% 30.31 in 10.0 mi North 10.4 mph - N/A   Clear
11:34 AM 1.4 °F -14.5 °F -5.8 °F 72% 30.30 in 10.0 mi North 10.4 mph - N/A   Clear
11:53 AM 1.4 °F -14.5 °F -4.0 °F 78% 30.29 in 10.0 mi North 10.4 mph - N/A   Mostly Cloudy
12:13 PM 3.2 °F -13.9 °F -2.2 °F 78% 30.29 in 10.0 mi North 12.7 mph - N/A   Mostly Cloudy
12:34 PM 3.2 °F -13.1 °F -2.2 °F 78% 30.28 in 10.0 mi North 11.5 mph - N/A   Mostly Cloudy
12:53 PM 3.2 °F -13.9 °F -2.2 °F 78% 30.28 in 10.0 mi North 12.7 mph - N/A   Overcast
1:14 PM 3.2 °F -12.2 °F -2.2 °F 78% 30.28 in 10.0 mi North 10.4 mph - N/A   Overcast
1:33 PM 3.2 °F -13.1 °F -2.2 °F 78% 30.26 in 10.0 mi North 11.5 mph - N/A   Mostly Cloudy
1:54 PM 3.2 °F -13.1 °F -2.2 °F 78% 30.25 in 10.0 mi North 11.5 mph - N/A   Clear
2:13 PM 3.2 °F -13.1 °F -0.4 °F 85% 30.25 in 10.0 mi North 11.5 mph - N/A   Mostly Cloudy
2:34 PM 3.2 °F -15.3 °F -0.4 °F 85% 30.24 in 10.0 mi North 15.0 mph - N/A   Overcast
2:53 PM 3.2 °F -14.6 °F -2.2 °F 78% 30.24 in 10.0 mi North 13.8 mph - N/A   Overcast
3:13 PM 1.4 °F -13.5 °F -2.2 °F 85% 30.23 in 10.0 mi North 9.2 mph - N/A   Mostly Cloudy
3:33 PM 1.4 °F -13.5 °F -2.2 °F 85% 30.23 in 10.0 mi North 9.2 mph - N/A   Scattered Clouds
3:53 PM 1.4 °F -12.5 °F -2.2 °F 85% 30.22 in 10.0 mi North 8.1 mph - N/A   Clear
4:13 PM 1.4 °F -9.9 °F -2.2 °F 85% 30.22 in 10.0 mi North 5.8 mph - N/A   Clear
4:33 PM 1.4 °F -12.5 °F -4.0 °F 78% 30.22 in 10.0 mi NNW 8.1 mph - N/A   Clear
4:53 PM -0.4 °F -15.7 °F -4.0 °F 85% 30.22 in 10.0 mi NNW 9.2 mph - N/A   Clear
5:13 PM -0.4 °F -16.7 °F -5.8 °F 78% 30.22 in 10.0 mi NNW 10.4 mph - N/A   Clear
5:33 PM -0.4 °F -15.7 °F -4.0 °F 85% 30.22 in 10.0 mi NNW 9.2 mph - N/A   Clear
5:53 PM -0.4 °F -15.7 °F -4.0 °F 85% 30.22 in 10.0 mi North 9.2 mph - N/A   Clear
6:14 PM -0.4 °F -13.4 °F -5.8 °F 78% 30.22 in 10.0 mi NNW 6.9 mph - N/A   Clear
6:33 PM -5.8 °F -19.9 °F -9.4 °F 84% 30.21 in 10.0 mi NNW 6.9 mph - N/A   Clear
6:54 PM -2.2 °F -16.8 °F -5.8 °F 85% 30.21 in 10.0 mi NNW 8.1 mph - N/A   Mostly Cloudy
7:13 PM -2.2 °F -16.8 °F -7.6 °F 78% 30.21 in 10.0 mi NNW 8.1 mph - N/A   Overcast
7:34 PM -0.4 °F -15.7 °F -4.0 °F 85% 30.20 in 10.0 mi North 9.2 mph - N/A   Overcast
7:53 PM -2.2 °F -15.6 °F -7.6 °F 78% 30.20 in 10.0 mi NNW 6.9 mph - N/A   Overcast
8:13 PM -2.2 °F -14.2 °F -7.6 °F 78% 30.19 in 10.0 mi NNW 5.8 mph - N/A   Overcast
8:34 PM -2.2 °F -14.2 °F -7.6 °F 78% 30.18 in 10.0 mi NW 5.8 mph - N/A   Overcast
8:53 PM -4.0 °F -19.0 °F -7.6 °F 85% 30.18 in 10.0 mi WNW 8.1 mph - N/A   Overcast
9:14 PM -5.8 °F - -9.4 °F 84% 30.17 in 10.0 mi Calm Calm - N/A   Overcast
9:33 PM -5.8 °F -16.7 °F -9.4 °F 84% 30.17 in 10.0 mi NW 4.6 mph - N/A   Mostly Cloudy
9:54 PM -7.6 °F -18.8 °F -11.2 °F 84% 30.16 in 10.0 mi WNW 4.6 mph - N/A   Unknown
10:33 PM -7.6 °F - -11.2 °F 84% 30.13 in 10.0 mi Calm Calm - N/A   Clear
10:53 PM -7.6 °F -18.8 °F -11.2 °F 84% 30.12 in 10.0 mi WNW 4.6 mph - N/A   Clear
11:13 PM -9.4 °F -22.7 °F -11.2 °F 92% 30.12 in 10.0 mi WNW 5.8 mph - N/A   Clear
11:34 PM -9.4 °F -22.7 °F -14.8 °F 77% 30.12 in 10.0 mi NW 5.8 mph - N/A   Clear
11:53 PM -11.2 °F -20.6 °F -14.8 °F 84% 30.11 in 10.0 mi NW 3.5 mph - N/A   Clear